EW2725 Weather Reports


time (UTC)temp
F
wind
direction
speed
knots
gust
knots
rain 1hr
in
rain 24hr
in
rain mn
in
humidity
%
barometer
mb
20260505091005 49 0 0.0 0.0 0.00 0.00 0.00 92 1011.9
20260505090112 49 229 1.7 0.0 0.00 0.00 0.00 88 1100.1
20260505085505 50 0 0.0 0.0 0.00 0.00 0.00 92 1011.9
20260505085005 50 0 0.0 0.0 0.00 0.00 0.00 92 1012.0
20260505084614 49 211 1.7 0.0 0.00 0.00 0.00 89 1100.1
20260505083005 50 0 0.0 0.0 0.00 0.00 0.00 92 1012.0
20260505082005 50 0 0.0 0.0 0.00 0.00 0.00 92 1012.0
20260505081643 49 225 2.6 0.0 0.00 0.00 0.00 89 1100.1
20260505081504 50 0 0.0 0.0 0.00 0.00 0.00 92 1012.0
20260505080132 49 183 1.7 0.0 0.00 0.00 0.00 89 1100.1
20260505080005 50 0 0.0 0.0 0.00 0.00 0.00 92 1012.1
20260505075505 50 0 0.0 0.0 0.00 0.00 0.00 92 1012.1
20260505074627 49 225 1.7 0.0 0.00 0.00 0.00 89 1100.1
20260505074505 50 0 0.0 0.0 0.00 0.00 0.00 92 1012.1
20260505073505 49 0 0.0 0.0 0.00 0.00 0.00 92 1012.2
20260505073141 49 225 0.9 0.0 0.00 0.00 0.00 88 1100.1
20260505073005 49 0 0.0 0.0 0.00 0.00 0.00 92 1012.2
20260505072506 49 0 0.0 0.0 0.00 0.00 0.00 92 1012.1
20260505071640 49 225 0.9 0.0 0.00 0.00 0.00 88 1100.1
20260505071505 49 0 0.0 0.0 0.00 0.00 0.00 91 1012.1
20260505071005 50 0 0.0 0.0 0.00 0.00 0.00 91 1012.1
20260505070005 50 0 0.0 0.0 0.00 0.00 0.00 91 1012.0
20260505070002 49 225 1.7 0.0 0.00 0.00 0.00 88 1100.1
20260505064510 49 225 0.9 0.0 0.00 0.00 0.00 88 1100.1
20260505064505 50 0 0.0 0.0 0.00 0.00 0.00 91 1012.1
20260505063505 50 0 0.0 0.0 0.00 0.00 0.00 91 1012.1
20260505063008 49 225 0.9 0.0 0.00 0.00 0.00 88 1100.1
20260505063005 50 0 0.0 0.0 0.00 0.00 0.00 91 1012.1
20260505062504 50 0 0.0 0.0 0.00 0.00 0.00 91 1012.1
20260505061504 49 225 1.7 0.0 0.00 0.00 0.00 88 1100.1
20260505061005 50 0 0.0 0.0 0.00 0.00 0.00 91 1012.2
20260505060005 50 0 0.0 0.0 0.00 0.00 0.00 90 1012.1
20260505060002 49 225 0.9 0.0 0.00 0.00 0.00 87 1100.1
20260505055505 50 0 0.0 0.0 0.00 0.00 0.00 90 1012.2
20260505055005 50 0 0.0 0.0 0.00 0.00 0.00 90 1012.2
20260505054649 49 225 0.9 0.0 0.00 0.00 0.00 87 1100.1
20260505053139 49 225 1.7 0.0 0.00 0.00 0.00 86 1100.1
20260505053005 50 0 0.0 0.0 0.00 0.00 0.00 90 1012.1
20260505052505 50 0 0.0 0.0 0.00 0.00 0.00 90 1012.1
20260505051630 50 225 1.7 0.0 0.00 0.00 0.00 86 1100.1
20260505050118 50 225 1.7 0.0 0.00 0.00 0.00 86 1100.1
20260505041622 50 219 2.6 0.0 0.00 0.00 0.00 85 1100.1
20260505040125 50 219 2.6 0.0 0.00 0.00 0.00 84 1100.1
20260505035505 51 0 0.0 0.0 0.00 0.00 0.00 87 1012.4
20260505034606 50 219 1.7 0.0 0.00 0.00 0.00 84 1100.1
20260505034005 51 0 0.0 0.0 0.00 0.00 0.00 86 1012.5
20260505033506 51 0 0.0 0.0 0.00 0.00 0.00 86 1012.5
20260505033107 51 223 2.6 0.0 0.00 0.00 0.00 83 1100.1
20260505031503 51 225 2.6 0.0 0.00 0.00 0.00 82 1100.1
20260505030149 51 215 1.7 0.0 0.00 0.00 0.00 81 1100.1
20260505030005 52 0 0.0 0.0 0.00 0.00 0.00 84 1012.6
20260505024637 51 213 2.6 0.0 0.00 0.00 0.00 80 1100.1
20260505024505 52 0 0.0 0.0 0.00 0.00 0.00 83 1012.6
20260505023506 52 0 0.0 0.0 0.00 0.00 0.00 82 1012.7
20260505023130 51 229 2.6 0.0 0.00 0.00 0.00 79 1100.1
20260505022506 52 0 0.0 0.0 0.00 0.00 0.00 81 1012.8
20260505022005 52 0 0.0 0.0 0.00 0.00 0.00 81 1012.8
20260505021619 52 218 2.6 0.0 0.00 0.00 0.00 78 1100.1
20260505020505 52 0 0.0 0.0 0.00 0.00 0.00 80 1012.8
20260505020116 52 224 3.5 0.0 0.00 0.00 0.00 77 1100.1
20260505020005 52 0 0.0 0.0 0.00 0.00 0.00 80 1012.6
20260505015005 53 0 0.0 0.0 0.00 0.00 0.00 79 1012.6
20260505014612 52 198 3.5 0.0 0.00 0.00 0.00 77 1100.1
20260505013505 53 0 0.0 0.0 0.00 0.00 0.00 78 1012.3
20260505013125 52 229 4.3 0.0 0.00 0.00 0.00 75 1100.1
20260505013005 53 0 0.0 0.0 0.00 0.00 0.00 78 1012.2
20260505012505 53 0 0.0 0.0 0.00 0.00 0.00 77 1012.3
20260505011505 53 0 0.0 0.0 0.00 0.00 0.00 76 1012.1
20260505011502 53 248 3.5 0.0 0.00 0.00 0.00 74 1100.1
20260505010505 53 0 0.0 0.0 0.00 0.00 0.00 75 1012.0
20260505010125 53 219 3.5 0.0 0.00 0.00 0.00 72 1100.1
20260505005505 53 0 0.0 0.0 0.00 0.00 0.00 73 1011.8
20260505004627 53 240 5.2 0.0 0.00 0.00 0.00 71 1100.1
20260505004005 54 0 0.0 0.0 0.00 0.00 0.00 73 1011.6
20260505003505 54 0 0.0 0.0 0.00 0.00 0.00 72 1011.5
20260505003116 53 253 3.5 0.0 0.00 0.00 0.00 70 1100.1
20260505002505 54 0 0.0 0.0 0.00 0.00 0.00 72 1011.4
20260505001622 53 244 3.5 0.0 0.00 0.00 0.00 70 1100.1
20260505001505 54 0 0.0 0.0 0.00 0.00 0.00 72 1011.1
20260505000505 54 0 0.0 0.0 0.00 0.00 0.00 72 1011.0
20260505000114 54 225 4.3 0.0 0.00 0.00 0.00 70 1100.1
20260505000005 54 0 0.0 0.0 0.00 0.00 0.00 72 1011.0
20260504234610 54 217 4.3 0.0 0.00 0.00 0.00 69 1100.1
20260504234505 54 0 0.0 0.0 0.00 0.00 0.00 71 1010.9
20260504234005 54 0 0.0 0.0 0.00 0.00 0.00 70 1010.7
20260504233018 54 232 5.2 0.0 0.00 0.00 0.00 69 1100.1
20260504232505 55 0 0.0 0.0 0.00 0.00 0.00 70 1010.6
20260504232006 55 0 0.0 0.0 0.00 0.00 0.00 69 1010.5
20260504231612 55 213 4.3 0.0 0.00 0.00 0.00 68 1100.1
20260504231504 55 0 0.0 0.0 0.00 0.00 0.00 69 1010.5
20260504230111 55 222 5.2 0.0 0.00 0.00 0.00 68 1100.1
20260504224508 56 229 6.1 0.0 0.00 0.00 0.00 67 1100.1
20260504223005 57 0 0.0 0.0 0.00 0.00 0.00 65 1010.1
20260504223002 56 185 5.2 0.0 0.00 0.00 0.00 66 1100.1
20260504222505 57 0 0.0 0.0 0.00 0.00 0.00 64 1010.1
20260504222005 58 0 0.0 0.0 0.00 0.00 0.00 63 1010.1
20260504221641 57 212 4.3 0.0 0.00 0.00 0.00 64 1100.1
20260504221005 58 0 0.0 0.0 0.00 0.00 0.00 61 1010.2
20260504220505 59 0 0.0 0.0 0.00 0.00 0.00 60 1010.1
20260504220110 58 227 5.2 0.0 0.00 0.00 0.00 63 1100.1
20260504214612 59 231 6.1 0.0 0.00 0.00 0.00 60 1100.1
20260504214504 60 0 0.0 0.0 0.00 0.00 0.00 58 1010.1
20260504214005 60 0 0.0 0.0 0.00 0.00 0.00 58 1010.1
20260504213109 59 239 6.1 0.0 0.00 0.00 0.00 60 1100.1
20260504213004 61 0 0.0 0.0 0.00 0.00 0.00 56 1010.0
20260504212005 62 0 0.0 0.0 0.00 0.00 0.00 56 1010.0
20260504211518 60 223 6.1 0.0 0.00 0.00 0.00 59 1100.1
20260504210129 60 222 5.2 0.0 0.00 0.00 0.00 61 1100.1
20260504205005 62 0 0.0 0.0 0.00 0.00 0.00 54 1009.9
20260504204632 60 208 6.1 0.0 0.00 0.00 0.00 60 1100.1
20260504204505 63 0 0.0 0.0 0.00 0.00 0.00 54 1009.9
20260504203137 61 226 7.0 0.0 0.00 0.00 0.00 56 1100.1
20260504203005 64 0 0.0 0.0 0.00 0.00 0.00 49 1009.6
20260504201618 63 253 6.1 0.0 0.00 0.00 0.00 45 1100.1
20260504200137 63 227 7.8 0.0 0.00 0.00 0.00 47 1100.1
20260504200005 67 0 0.0 0.0 0.00 0.00 0.00 43 1009.7
20260504195505 66 0 0.0 0.0 0.00 0.00 0.00 43 1009.8
20260504194640 64 243 7.8 0.0 0.00 0.00 0.00 45 1100.1
20260504194505 66 0 0.0 0.0 0.00 0.00 0.00 41 1009.7
20260504193137 64 248 7.8 0.0 0.00 0.00 0.00 46 1100.1
20260504193005 67 0 0.0 0.0 0.00 0.00 0.00 42 1009.7
20260504191640 65 236 6.1 0.0 0.00 0.00 0.00 47 1100.1
20260504191505 67 0 0.0 0.0 0.00 0.00 0.00 44 1009.5
20260504190142 65 228 6.1 0.0 0.00 0.00 0.00 49 1100.1
20260504185505 68 0 0.0 0.0 0.00 0.00 0.00 47 1009.7
20260504184638 64 182 5.2 0.0 0.00 0.00 0.00 56 1100.1
20260504184505 66 0 0.0 0.0 0.00 0.00 0.00 52 1009.9
20260504183506 67 0 0.0 0.0 0.00 0.00 0.00 50 1009.9
20260504183141 65 238 4.3 0.0 0.00 0.00 0.00 54 1100.1
20260504183006 67 0 0.0 0.0 0.00 0.00 0.00 51 1009.9
20260504182506 67 0 0.0 0.0 0.00 0.00 0.00 51 1009.8
20260504182006 67 0 0.0 0.0 0.00 0.00 0.00 52 1009.8
20260504181628 63 208 6.1 0.0 0.00 0.00 0.00 58 1100.1
20260504181506 66 0 0.0 0.0 0.00 0.00 0.00 53 1009.7
20260504180506 66 0 0.0 0.0 0.00 0.00 0.00 52 1009.8
20260504180130 64 236 6.1 0.0 0.00 0.00 0.00 55 1100.1
20260504180006 66 0 0.0 0.0 0.00 0.00 0.00 50 1009.8
20260504174607 64 225 7.0 0.0 0.00 0.00 0.00 51 1100.1
20260504174007 67 0 0.0 0.0 0.00 0.00 0.00 46 1009.8
20260504173506 67 0 0.0 0.0 0.00 0.00 0.00 48 1009.8
20260504173007 67 0 0.0 0.0 0.00 0.00 0.00 49 1009.8
20260504173002 64 200 7.0 0.0 0.00 0.00 0.00 54 1100.1
20260504171513 65 194 5.2 0.0 0.00 0.00 0.00 49 1100.1
20260504171006 68 0 0.0 0.0 0.00 0.00 0.00 45 1009.9
20260504170506 70 0 0.0 0.0 0.00 0.00 0.00 41 1009.8
20260504170123 67 178 7.0 0.0 0.00 0.00 0.00 39 1100.1
20260504160121 64 225 5.2 0.0 0.00 0.00 0.00 52 1100.1
20260504151007 64 0 0.0 0.0 0.00 0.00 0.00 54 1010.8
20260504150506 65 0 0.0 0.0 0.00 0.00 0.00 54 1010.8
20260504150117 62 219 6.1 0.0 0.00 0.00 0.00 55 1100.1
20260504140506 62 0 0.0 0.0 0.00 0.00 0.00 43 1011.4
20260504140146 63 254 4.3 0.0 0.00 0.00 0.00 44 1100.1
20260504130506 58 0 0.0 0.0 0.00 0.00 0.00 50 1011.8
20260504130123 59 256 4.3 0.0 0.00 0.00 0.00 49 1100.1
20260504120132 53 244 2.6 0.0 0.00 0.00 0.00 61 1100.1
20260504110135 46 244 0.9 0.0 0.00 0.00 0.00 73 1100.1
20260504100140 43 244 0.0 0.0 0.00 0.00 0.00 76 1100.1